VA3VWX-13 Weather Reports


time (UTC)temp
C
wind
direction
speed
KPH
gust
KPH
rain 1hr
cm
rain 24hr
cm
rain mn
cm
humidity
%
barometer
mb
20260510061327 10 310 4.8 14.5 0.00 0.99 0.00 56 1009.0
20260510060835 10 322 4.8 17.7 0.00 0.99 0.00 57 1009.0
20260510060353 10 316 8.0 17.7 0.00 0.99 0.00 57 1009.1
20260510055839 10 283 3.2 11.3 0.00 0.99 0.00 57 1009.0
20260510055336 10 302 6.4 11.3 0.00 0.99 0.00 56 1008.9
20260510054823 10 308 4.8 11.3 0.00 0.99 0.00 56 1008.8
20260510054351 10 318 3.2 6.4 0.00 0.99 0.00 58 1008.8
20260510053829 11 305 1.6 6.4 0.00 0.99 0.00 58 1008.6
20260510053336 11 314 3.2 6.4 0.00 0.99 0.00 58 1008.5
20260510052842 11 299 3.2 8.0 0.00 0.99 0.00 58 1008.4
20260510052348 11 303 3.2 8.0 0.00 0.99 0.00 59 1008.4
20260510051824 11 309 3.2 9.7 0.00 0.99 0.00 58 1008.4
20260510051330 11 309 3.2 12.9 0.00 0.99 0.00 58 1008.4
20260510050839 11 291 3.2 9.7 0.00 0.99 0.00 58 1008.3
20260510050356 11 273 3.2 8.0 0.00 0.99 0.00 59 1008.3
20260510045837 11 295 1.6 6.4 0.00 0.99 0.00 61 1008.3
20260510045323 11 302 1.6 4.8 0.00 0.99 0.00 60 1008.3
20260510044851 11 306 1.6 8.0 0.00 0.99 0.00 60 1008.2
20260510044329 11 317 4.8 11.3 0.00 0.99 0.00 60 1008.1
20260510043831 11 308 4.8 8.0 0.00 0.99 0.00 61 1008.0
20260510043340 11 304 3.2 9.7 0.00 0.99 0.00 62 1007.9
20260510042837 11 341 3.2 9.7 0.00 0.99 0.00 63 1007.8
20260510042322 11 318 3.2 8.0 0.00 0.99 0.00 63 1007.7
20260510041829 11 342 4.8 8.0 0.00 0.99 0.00 64 1007.6
20260510041327 11 315 3.2 6.4 0.00 0.99 0.00 65 1007.6
20260510040833 11 333 3.2 9.7 0.00 0.99 0.00 64 1007.5
20260510040349 11 297 3.2 11.3 0.00 0.99 0.00 63 1007.5
20260510035838 11 325 3.2 16.1 0.00 0.99 0.00 63 1007.5
20260510035345 11 300 3.2 16.1 0.00 0.99 0.25 64 1007.4
20260510034822 11 328 3.2 11.3 0.00 0.99 0.25 66 1007.4
20260510034329 12 319 3.2 8.0 0.00 0.99 0.25 67 1007.2
20260510033837 12 339 3.2 8.0 0.00 0.99 0.25 67 1007.0
20260510033334 12 330 1.6 11.3 0.00 0.99 0.25 70 1006.9
20260510032841 12 350 3.2 11.3 0.00 0.99 0.25 68 1007.1
20260510032330 12 306 3.2 8.0 0.00 0.99 0.25 70 1006.9
20260510031823 12 319 1.6 8.0 0.00 0.99 0.25 70 1006.6
20260510031330 12 345 3.2 8.0 0.00 0.99 0.25 71 1006.6
20260510030839 12 9 6.4 8.0 0.00 0.99 0.25 71 1006.5
20260510030356 12 330 3.2 8.0 0.00 0.99 0.25 72 1006.3
20260510025837 12 344 1.6 6.4 0.00 0.99 0.25 73 1006.6
20260510025324 12 328 1.6 8.0 0.00 0.99 0.25 73 1006.6
20260510024831 12 335 3.2 9.7 0.00 0.99 0.25 74 1006.6
20260510024330 12 328 4.8 9.7 0.00 0.99 0.25 77 1006.6
20260510023838 12 333 4.8 14.5 0.00 0.99 0.25 80 1006.4
20260510023324 13 319 6.4 19.3 0.00 0.99 0.25 80 1006.5
20260510022851 13 312 8.0 20.9 0.00 0.99 0.25 80 1006.5
20260510022325 13 320 12.9 20.9 0.00 0.99 0.25 81 1006.5
20260510021831 13 307 6.4 11.3 0.00 0.99 0.25 81 1006.4
20260510021339 13 323 4.8 8.0 0.00 0.99 0.25 81 1006.1
20260510020837 13 309 3.2 8.0 0.00 0.99 0.25 81 1006.0
20260510020348 13 311 3.2 8.0 0.00 0.99 0.25 81 1005.9
20260510015838 13 307 3.2 6.4 0.00 0.99 0.25 81 1005.7
20260510015326 13 307 4.8 6.4 0.00 0.99 0.25 82 1005.6
20260510014823 12 263 1.6 4.8 0.00 0.99 0.25 82 1005.6
20260510014330 12 260 0.0 3.2 0.00 0.99 0.25 82 1005.5
20260510013838 12 258 0.0 3.2 0.00 0.99 0.25 82 1005.4
20260510013345 12 242 0.0 3.2 0.00 0.99 0.25 81 1005.3
20260510012823 12 258 1.6 3.2 0.00 0.99 0.25 81 1005.2
20260510012331 12 253 1.6 3.2 0.00 0.99 0.25 81 1004.9
20260510011829 12 258 0.0 0.0 0.00 0.99 0.25 80 1004.8
20260510011336 12 259 0.0 0.0 0.00 0.99 0.25 80 1004.7
20260510010840 12 262 0.0 0.0 0.00 0.99 0.25 79 1004.6
20260510010358 12 263 0.0 0.0 0.00 0.99 0.25 79 1004.5
20260510005847 13 271 0.0 3.2 0.00 0.99 0.25 78 1004.3
20260510005325 13 290 1.6 4.8 0.00 0.99 0.25 78 1004.2
20260510004831 13 247 0.0 9.7 0.00 0.99 0.25 77 1004.3
20260510004335 13 258 4.8 9.7 0.00 0.99 0.25 77 1004.3
20260510003832 13 290 4.8 8.0 0.00 0.99 0.25 77 1004.1
20260510003340 13 304 3.2 8.0 0.00 0.99 0.25 78 1004.1
20260510002826 13 289 1.6 4.8 0.00 0.99 0.25 78 1004.0
20260510002323 13 299 1.6 12.9 0.00 0.99 0.25 78 1004.1
20260510001830 13 309 4.8 14.5 0.00 0.99 0.25 79 1004.0
20260510001338 13 272 6.4 17.7 0.00 0.99 0.25 79 1003.9
20260510000845 12 267 8.0 17.7 0.00 0.99 0.25 81 1003.8
20260510000403 12 248 4.8 9.7 0.00 0.99 0.25 83 1003.8
20260509235842 12 288 4.8 9.7 0.00 0.99 0.25 84 1003.6
20260509235328 12 283 3.2 8.0 0.00 0.99 0.25 85 1003.4
20260509234823 11 237 0.0 4.8 0.00 0.99 0.25 84 1003.3
20260509234330 11 231 1.6 4.8 0.00 0.99 0.25 84 1003.3
20260509233838 11 257 1.6 11.3 0.00 0.99 0.25 84 1003.2
20260509233345 11 269 3.2 11.3 0.00 0.99 0.25 83 1003.1
20260509232848 11 227 3.2 14.5 0.00 0.99 0.25 83 1003.1
20260509232325 11 219 4.8 20.9 0.00 0.99 0.25 82 1002.9
20260509231831 11 208 8.0 25.7 0.00 0.99 0.25 81 1003.0
20260509231329 11 219 9.7 20.9 0.00 0.99 0.25 80 1003.0
20260509230834 12 226 11.3 24.1 0.00 0.99 0.25 80 1002.8
20260509230350 12 232 14.5 29.0 0.00 0.99 0.25 80 1002.8
20260509225840 12 240 19.3 30.6 0.00 0.99 0.25 80 1002.7
20260509225346 12 207 17.7 27.4 0.20 0.99 0.25 80 1002.8
20260509224822 12 278 11.3 29.0 0.61 0.99 0.25 80 1003.0
20260509224330 12 232 11.3 25.7 0.71 0.99 0.25 79 1002.9
20260509223838 12 223 11.3 24.1 0.89 0.99 0.25 79 1002.7
20260509223335 12 257 9.7 22.5 0.89 0.99 0.25 79 1002.7
20260509222823 12 224 9.7 25.7 0.99 0.99 0.25 78 1002.6
20260509222330 12 231 12.9 25.7 0.99 0.99 0.25 79 1002.6
20260509221828 12 205 11.3 22.5 0.99 0.99 0.25 80 1002.6
20260509221334 12 176 11.3 35.4 0.99 0.99 0.25 80 1002.5
20260509220822 12 205 16.1 40.2 0.99 0.99 0.25 82 1002.3
20260509220355 12 210 22.5 40.2 0.99 0.99 0.25 83 1002.3
20260509215845 12 269 16.1 35.4 0.89 0.89 0.23 82 1002.9
20260509215322 13 353 12.9 24.1 0.71 0.71 0.18 84 1004.0
20260509214829 12 281 6.4 11.3 0.41 0.41 0.10 82 1003.5
20260509214326 12 243 4.8 24.1 0.30 0.30 0.08 80 1003.2
20260509213832 12 245 9.7 24.1 0.10 0.10 0.03 79 1003.0
20260509213339 12 271 11.3 22.5 0.10 0.10 0.03 77 1002.8
20260509212847 13 205 12.9 20.9 0.00 0.00 0.00 76 1002.9
20260509212324 13 222 11.3 22.5 0.00 0.00 0.00 76 1002.8
20260509211830 13 212 8.0 22.5 0.00 0.00 0.00 76 1002.7
20260509211338 13 238 11.3 24.1 0.00 0.00 0.00 76 1002.9
20260509210846 13 171 9.7 24.1 0.00 0.00 0.00 76 1002.9
20260509210404 13 230 12.9 25.7 0.00 0.00 0.00 75 1002.8
20260509205842 13 231 12.9 25.7 0.00 0.00 0.00 75 1002.6
20260509205329 13 181 14.5 27.4 0.00 0.00 0.00 75 1002.3
20260509204824 13 217 12.9 27.4 0.00 0.00 0.00 75 1002.3
20260509204332 13 200 12.9 24.1 0.00 0.00 0.00 75 1002.2
20260509203840 13 159 14.5 22.5 0.00 0.00 0.00 76 1002.5
20260509203347 13 217 9.7 19.3 0.00 0.00 0.00 75 1002.5
20260509202826 13 189 8.0 17.7 0.00 0.00 0.00 75 1002.5
20260509202332 13 160 6.4 25.7 0.00 0.00 0.00 75 1002.5
20260509201838 13 199 11.3 25.7 0.00 0.00 0.00 75 1002.6
20260509201335 13 203 9.7 25.7 0.00 0.00 0.00 74 1002.6
20260509200842 13 208 14.5 24.1 0.00 0.00 0.00 74 1002.6
20260509200340 13 158 11.3 24.1 0.00 0.00 0.00 74 1002.6
20260509195831 13 151 8.0 25.7 0.00 0.00 0.00 74 1003.0
20260509195329 13 155 14.5 25.7 0.00 0.00 0.00 73 1003.1
20260509194837 13 217 11.3 19.3 0.00 0.00 0.00 77 1003.2
20260509194344 12 226 1.6 11.3 0.00 0.00 0.00 79 1003.2
20260509193850 11 225 1.6 9.7 0.00 0.00 0.00 79 1003.1
20260509193328 11 139 1.6 8.0 0.00 0.00 0.00 78 1003.3
20260509192830 11 124 1.6 6.4 0.00 0.00 0.00 79 1003.4
20260509192329 11 118 1.6 6.4 0.00 0.00 0.00 79 1003.6
20260509191836 11 153 3.2 6.4 0.00 0.00 0.00 79 1003.6
20260509191342 11 143 3.2 6.4 0.00 0.00 0.00 78 1003.7
20260509190849 11 70 3.2 12.9 0.00 0.00 0.00 79 1003.7
20260509190407 11 200 4.8 14.5 0.00 0.00 0.00 79 1003.6
20260509185826 11 89 8.0 16.1 0.00 0.00 0.00 78 1003.8
20260509185333 11 129 6.4 17.7 0.00 0.00 0.00 78 1003.8
20260509184838 11 102 8.0 17.7 0.00 0.00 0.00 77 1003.9
20260509184336 11 142 6.4 20.9 0.00 0.00 0.00 77 1003.9
20260509183840 12 174 8.0 17.7 0.00 0.00 0.00 76 1003.9
20260509183326 12 106 6.4 24.1 0.00 0.00 0.00 76 1003.9
20260509182824 12 119 8.0 24.1 0.00 0.00 0.00 77 1003.9
20260509182331 12 117 9.7 17.7 0.00 0.00 0.00 79 1003.9
20260509181839 12 140 6.4 19.3 0.00 0.00 0.00 80 1004.0
20260509181341 12 115 6.4 20.9 0.00 0.00 0.00 79 1004.0
20260509180839 12 148 11.3 20.9 0.00 0.00 0.00 78 1004.0
20260509180355 12 208 9.7 20.9 0.00 0.00 0.00 79 1003.9
20260509175824 13 129 9.7 19.3 0.00 0.00 0.00 77 1004.1
20260509175331 13 151 6.4 16.1 0.00 0.00 0.00 78 1004.2
20260509174828 13 123 8.0 20.9 0.00 0.00 0.00 77 1004.2
20260509174334 13 100 9.7 20.9 0.00 0.00 0.00 77 1004.2
20260509173841 13 158 9.7 19.3 0.00 0.00 0.00 77 1004.3
20260509173347 13 110 4.8 17.7 0.00 0.00 0.00 79 1004.5
20260509172825 13 129 8.0 17.7 0.00 0.00 0.00 79 1004.5
20260509172333 13 160 9.7 17.7 0.00 0.00 0.00 79 1004.7
20260509171842 13 137 11.3 17.7 0.00 0.00 0.00 79 1004.8
20260509171339 13 136 11.3 17.7 0.00 0.00 0.00 79 1005.0
20260509170825 13 121 9.7 17.7 0.00 0.00 0.00 80 1005.1
20260509170344 13 56 9.7 14.5 0.00 0.00 0.00 80 1005.0
20260509165825 13 44 6.4 14.5 0.00 0.00 0.00 80 1005.2
20260509165326 13 71 8.0 14.5 0.00 0.00 0.00 79 1005.3
20260509164834 13 110 6.4 14.5 0.00 0.00 0.00 80 1005.2
20260509164341 13 129 6.4 16.1 0.00 0.00 0.00 81 1005.1
20260509163839 13 129 11.3 16.1 0.00 0.00 0.00 80 1005.3
20260509163326 13 143 8.0 14.5 0.00 0.00 0.00 80 1005.3
20260509162830 12 155 4.8 12.9 0.00 0.00 0.00 81 1005.3
20260509162326 12 200 6.4 11.3 0.00 0.00 0.00 80 1005.2
20260509161833 12 174 4.8 12.9 0.00 0.00 0.00 82 1005.4
20260509161340 12 149 3.2 9.7 0.00 0.00 0.00 81 1005.5
20260509160847 12 111 6.4 11.3 0.00 0.00 0.00 81 1005.5
20260509160404 12 149 4.8 12.9 0.00 0.00 0.00 81 1005.6
20260509155824 12 200 6.4 12.9 0.00 0.00 0.00 81 1005.6
20260509155331 12 127 4.8 12.9 0.00 0.00 0.00 80 1005.7
20260509154838 12 153 6.4 12.9 0.00 0.00 0.00 80 1005.8
20260509154336 12 177 3.2 9.7 0.00 0.00 0.00 81 1006.0
20260509153823 12 115 4.8 8.0 0.00 0.00 0.00 80 1006.1
20260509153347 12 173 1.6 8.0 0.00 0.00 0.00 82 1006.1
20260509152850 11 99 3.2 8.0 0.00 0.00 0.00 82 1006.3
20260509152328 11 112 3.2 8.0 0.00 0.00 0.00 82 1006.3
20260509151834 11 179 4.8 8.0 0.00 0.00 0.00 81 1006.4
20260509151332 11 140 4.8 8.0 0.00 0.00 0.00 82 1006.3
20260509150839 11 148 3.2 9.7 0.00 0.00 0.00 83 1006.4
20260509150357 10 151 3.2 9.7 0.00 0.00 0.00 84 1006.4
20260509145827 10 225 3.2 11.3 0.00 0.00 0.00 85 1006.2
20260509145324 10 98 4.8 11.3 0.00 0.00 0.00 85 1006.1
20260509144832 9 139 4.8 14.5 0.00 0.00 0.00 85 1006.1
20260509144339 8 117 9.7 14.5 0.00 0.00 0.00 84 1006.3
20260509143848 8 104 4.8 11.3 0.00 0.00 0.00 84 1006.4
20260509143326 8 110 4.8 11.3 0.00 0.00 0.00 84 1006.5
20260509142833 8 90 6.4 11.3 0.00 0.00 0.00 84 1006.6
20260509142339 8 92 6.4 11.3 0.00 0.00 0.00 83 1006.6
20260509141834 8 121 4.8 9.7 0.00 0.00 0.00 83 1006.6
20260509141342 9 122 4.8 9.7 0.00 0.00 0.00 83 1006.7
20260509140848 9 124 4.8 8.0 0.00 0.00 0.00 82 1006.8
20260509140407 9 169 1.6 12.9 0.00 0.00 0.00 82 1006.8
20260509135827 9 146 6.4 12.9 0.00 0.00 0.00 82 1006.8
20260509135334 9 119 4.8 11.3 0.00 0.00 0.00 81 1006.7
20260509134840 9 112 4.8 11.3 0.00 0.00 0.00 81 1006.8
20260509134348 9 114 1.6 12.9 0.00 0.00 0.00 81 1006.9
20260509133824 9 114 6.4 12.9 0.00 0.00 0.00 81 1006.7
20260509133330 9 94 4.8 12.9 0.00 0.00 0.00 80 1006.8
20260509132829 9 111 6.4 11.3 0.00 0.00 0.00 80 1006.8
20260509132334 9 73 6.4 11.3 0.00 0.00 0.00 79 1006.9
20260509131822 8 130 6.4 9.7 0.00 0.00 0.00 79 1006.9
20260509131349 8 99 8.0 9.7 0.00 0.00 0.00 79 1007.0
20260509130826 9 80 4.8 9.7 0.00 0.00 0.00 79 1007.0
20260509130345 9 124 4.8 9.7 0.00 0.00 0.00 78 1007.0
20260509125827 9 135 1.6 9.7 0.00 0.00 0.00 78 1007.0
20260509125334 9 169 4.8 9.7 0.00 0.20 0.00 77 1007.1
20260509124833 9 119 1.6 8.0 0.00 0.20 0.00 78 1007.1
20260509124341 9 129 3.2 11.3 0.00 0.20 0.00 77 1007.1
20260509123847 8 121 6.4 14.5 0.00 0.20 0.00 77 1007.1
20260509123325 8 150 6.4 14.5 0.00 0.20 0.00 77 1007.2
20260509122831 9 97 4.8 11.3 0.00 0.20 0.00 76 1007.2
20260509122337 8 127 3.2 11.3 0.00 0.20 0.00 76 1007.2
20260509121843 8 136 3.2 12.9 0.00 0.20 0.00 76 1007.3
20260509121342 8 108 4.8 12.9 0.00 0.20 0.00 75 1007.2
20260509120829 8 115 4.8 8.0 0.00 0.20 0.00 75 1007.3
20260509120347 8 138 3.2 11.3 0.00 0.20 0.00 75 1007.1
20260509115837 8 150 3.2 11.3 0.00 0.20 0.00 75 1007.1
20260509115343 8 118 4.8 9.7 0.00 0.51 0.00 75 1006.9
20260509114836 8 83 3.2 9.7 0.00 0.51 0.00 75 1007.0
20260509114322 8 97 4.8 9.7 0.00 0.51 0.00 74 1007.1
20260509113850 8 146 3.2 8.0 0.00 0.51 0.00 74 1007.0
20260509113328 7 82 3.2 9.7 0.00 0.51 0.00 74 1007.1
20260509112833 7 113 3.2 9.7 0.00 0.51 0.00 74 1007.1
20260509112338 7 83 6.4 9.7 0.00 0.51 0.00 74 1007.1
20260509111844 7 139 4.8 8.0 0.00 0.51 0.00 75 1007.1
20260509111341 7 107 3.2 6.4 0.00 0.51 0.00 75 1007.1
20260509110826 7 124 3.2 6.4 0.00 0.51 0.00 76 1007.1
20260509110346 7 113 3.2 6.4 0.00 0.51 0.00 76 1007.1
20260509105916 7 127 1.6 6.4 0.00 0.51 0.00 76 1007.1
20260509105339 7 96 3.2 6.4 0.00 0.51 0.00 76 1007.1
20260509104846 7 123 1.6 3.2 0.00 0.51 0.00 77 1007.1
20260509104338 7 120 0.0 1.6 0.00 0.51 0.00 76 1007.2
20260509103823 7 122 0.0 3.2 0.00 0.51 0.00 76 1007.2
20260509103331 7 113 0.0 3.2 0.00 0.51 0.00 76 1007.2
20260509102828 7 95 1.6 3.2 0.00 0.51 0.00 76 1007.1
20260509102335 7 104 1.6 3.2 0.00 0.51 0.00 76 1007.1
20260509101822 7 79 0.0 1.6 0.00 0.51 0.00 78 1007.2
20260509101349 7 79 0.0 6.4 0.00 0.51 0.00 77 1007.2
20260509100826 7 75 1.6 6.4 0.00 0.51 0.00 77 1007.2
20260509100345 7 120 0.0 3.2 0.00 0.51 0.00 77 1007.3
20260509095834 7 115 0.0 3.2 0.00 0.51 0.00 79 1007.3
20260509095340 7 106 0.0 3.2 0.00 0.51 0.00 79 1007.4
20260509094838 7 120 0.0 3.2 0.00 0.51 0.00 80 1007.5
20260509094325 7 99 0.0 0.0 0.00 0.51 0.00 79 1007.5
20260509093822 7 85 0.0 0.0 0.00 0.51 0.00 80 1007.5
20260509093329 7 99 0.0 0.0 0.00 0.51 0.00 79 1007.5
20260509092836 7 90 0.0 3.2 0.00 0.51 0.00 80 1007.5
20260509092338 7 113 0.0 3.2 0.00 0.51 0.00 80 1007.5
20260509091846 6 119 0.0 0.0 0.00 0.51 0.00 81 1007.5
20260509091342 6 115 0.0 0.0 0.00 0.51 0.00 81 1007.5
20260509090829 6 115 0.0 0.0 0.00 0.51 0.00 81 1007.6
20260509090343 6 115 0.0 0.0 0.00 0.51 0.00 82 1007.6
20260509085824 6 115 0.0 0.0 0.00 0.51 0.00 82 1007.6
20260509085331 6 115 0.0 0.0 0.00 0.51 0.00 82 1007.6
20260509084839 6 119 0.0 0.0 0.00 0.51 0.00 82 1007.6
20260509084347 6 105 0.0 1.6 0.00 0.51 0.00 83 1007.7
20260509083824 6 85 0.0 3.2 0.00 0.51 0.00 83 1007.6
20260509083333 6 110 1.6 3.2 0.00 0.51 0.00 83 1007.7
20260509082840 6 101 1.6 3.2 0.00 0.51 0.00 83 1007.7
20260509082339 6 119 0.0 0.0 0.00 0.51 0.00 83 1007.8
20260509081826 6 119 0.0 0.0 0.00 0.51 0.00 83 1007.8
20260509081333 6 119 0.0 0.0 0.00 0.51 0.00 83 1007.7
20260509080833 6 118 0.0 0.0 0.00 0.51 0.00 82 1007.7
20260509080346 5 119 0.0 0.0 0.00 0.51 0.00 82 1007.7
20260509075837 5 119 0.0 0.0 0.00 0.51 0.00 81 1007.7
20260509075345 5 119 0.0 0.0 0.00 0.51 0.00 81 1007.8
20260509074823 5 119 0.0 0.0 0.00 0.51 0.00 81 1007.7
20260509074330 5 119 0.0 0.0 0.00 0.51 0.00 81 1007.8
20260509073837 5 119 0.0 0.0 0.00 0.51 0.00 81 1007.7
20260509073334 5 119 0.0 0.0 0.00 0.51 0.00 82 1007.8
20260509072842 5 119 0.0 0.0 0.00 0.51 0.00 82 1007.8
20260509072329 5 119 0.0 0.0 0.00 0.51 0.00 82 1007.9
20260509071827 5 119 0.0 0.0 0.00 0.51 0.00 82 1007.9
20260509071334 5 119 0.0 0.0 0.00 0.51 0.00 82 1007.9
20260509070841 5 119 0.0 0.0 0.00 0.51 0.00 82 1007.9
20260509070358 5 119 0.0 0.0 0.00 0.51 0.00 82 1007.9
20260509065848 5 119 0.0 0.0 0.00 0.51 0.00 82 1007.9
20260509065326 5 119 0.0 0.0 0.00 0.51 0.00 82 1008.0
20260509064833 5 119 0.0 1.6 0.00 0.51 0.00 82 1008.1
20260509064336 5 119 0.0 0.0 0.00 0.51 0.00 82 1008.2
20260509063833 5 119 0.0 0.0 0.00 0.51 0.00 81 1008.3
20260509063341 5 119 0.0 0.0 0.00 0.51 0.00 81 1008.3
20260509062848 5 119 0.0 0.0 0.00 0.51 0.00 80 1008.4
20260509062327 5 119 0.0 0.0 0.00 0.51 0.00 80 1008.5
20260509061833 5 119 0.0 0.0 0.00 0.51 0.00 79 1008.6